[[{"header":{"parameterUnit":"m.s-1","parameterCategory":1,"la1":30.2991,"la2":30.254,"lo1":-89.0895,"lo2":-89.0444,"dy":0.0017,"dx":0.0017,"nx":28,"ny":28,"refTime":"2024-03-18T09:00:00:Z","depth":0,"parameterNumber":2,"parameterNumberName":"U-component_of_WINDS"},"data":[0,0,0,0,0,0,0,0,0,0,0,0,0,0,0,0,0,0,0,0,0,0,0,0,0,0,0,0,0,0,0,0,0,0,0,0,0,0,0,0,0,0,0,0,0,0,0,0,0,0,0,0,0,0,0,0,0,0,-3.6667,-3.6667,0,-3.6691,-3.6691,-3.6691,-3.6614,-3.6611,-3.6609,-3.6607,-3.6633,-3.6635,-3.6638,0,0,0,0,0,0,0,0,0,0,0,0,0,-3.6554,-3.6557,-3.6667,-3.6667,-3.6667,-3.6691,-3.6691,-3.6691,-3.6614,-3.6611,-3.6608,-3.6606,-3.6632,-3.6635,-3.6639,0,0,0,0,0,0,0,0,0,0,0,0,0,-3.6593,-3.6557,-3.6666,-3.6631,-3.6628,-3.6691,-3.6691,-3.6691,-3.6615,-3.6611,-3.6607,-3.6604,-3.6631,-3.6635,-3.6639,-3.6737,0,0,-3.6652,-3.6654,0,0,0,0,0,0,0,0,-3.6591,-3.6597,-3.6636,-3.6634,-3.6631,-3.6645,-3.6661,-3.6707,-3.6615,-3.662,-3.6607,-3.6602,-3.664,-3.6643,-3.6656,-3.6738,-3.6739,-3.6653,-3.6655,-3.6657,-3.6658,0,0,0,0,0,0,0,-3.6588,-3.6596,-3.6676,-3.6637,-3.6634,-3.6615,-3.6616,-3.6669,-3.665,-3.6619,-3.6614,-3.6617,-3.6638,-3.6652,-3.6656,-3.674,-3.6653,-3.6656,-3.6659,-3.6661,-3.6904,-3.6907,0,0,0,0,0,0,-3.659,-3.6594,-3.6675,-3.6677,-3.6602,-3.662,-3.6621,-3.6644,-3.6649,-3.6646,-3.662,-3.6614,-3.6646,-3.6651,-3.6656,-3.6771,-3.6657,-3.6661,-3.6664,-3.69,-3.6905,-3.6909,0,0,0,0,0,0,-3.6588,-3.6598,-3.6674,-3.6634,-3.6642,-3.6625,-3.6652,-3.6647,-3.666,-3.665,-3.6646,-3.6638,-3.6643,-3.665,-3.6717,-3.6771,-3.6663,-3.6667,-3.6895,-3.6901,-3.6907,-3.7002,0,0,0,0,0,0,-3.6585,-3.6598,-3.6635,-3.6635,-3.6645,-3.6735,-3.6655,-3.665,-3.6668,-3.6659,-3.6665,-3.6663,-3.6641,-3.6711,-3.6722,-3.6775,-3.6671,-3.689,-3.6898,-3.6905,-3.6994,-3.7011,-3.7025,0,0,0,0,0,-3.6581,-3.6661,-3.6637,-3.6647,-3.669,-3.6738,-3.6744,-3.6717,-3.6673,-3.671,-3.6703,-3.6663,-3.6763,-3.6719,-3.673,-3.6786,-3.6887,-3.6896,-3.6904,-3.6987,-3.7007,-3.7024,0,0,0,0,0,0,-3.6667,-3.666,-3.6634,-3.6716,-3.6728,-3.6725,-3.6771,-3.6738,-3.6764,-3.6755,-3.6721,-3.6723,-3.6796,-3.6797,-3.6748,-3.688,-3.6818,-3.6829,-3.6877,-3.6896,-3.6911,-3.691,-3.6674,0,0,0,0,0,-3.6696,-3.6735,-3.6727,-3.68,-3.6807,-3.6788,-3.6808,-3.6786,-3.6798,-3.6803,-3.6801,-3.6814,-3.6849,-3.6872,-3.6903,-3.6994,-3.6994,-3.7037,-3.7053,-3.7065,-3.7076,-3.7124,-3.7143,-3.6937,-3.6937,-3.6937,0,0,-3.6755,-3.6756,-3.6783,-3.6817,-3.6824,-3.6866,-3.6793,-3.6841,-3.6871,-3.681,-3.6874,-3.6873,-3.6885,-3.6965,-3.6999,-3.6968,-3.7133,-3.7076,-3.7086,-3.709,-3.7135,-3.7154,-3.7172,-3.6943,-3.6942,-3.6941,0,0,-3.6884,-3.6888,-3.695,-3.6959,-3.697,-3.6957,-3.6972,-3.6974,-3.6971,-3.7034,-3.6989,-3.7025,-3.7085,-3.7096,-3.711,-3.7243,-3.7208,-3.7254,-3.7334,-3.7382,-3.7398,-3.7412,-3.746,-3.7478,-3.7265,-3.7265,-3.7265,0,-3.6956,-3.7017,-3.6986,-3.7036,-3.7053,-3.6999,-3.7061,-3.7071,-3.7093,-3.7106,-3.707,-3.7144,-3.7149,-3.723,-3.7263,-3.7276,-3.7292,-3.7254,-3.7398,-3.7412,-3.7425,-3.747,-3.7489,-3.727,-3.727,-3.7269,-3.7269,0,-3.7106,-3.7149,-3.7197,-3.7219,-3.7241,-3.7297,-3.7275,-3.7301,-3.7277,-3.7268,-3.7333,-3.7336,-3.7368,-3.7385,-3.7362,-3.7464,-3.7444,-3.7404,-3.734,-3.7451,-3.7493,-3.751,-3.7279,-3.7277,-3.7275,-3.7273,0,0,-3.729,-3.7294,-3.7312,-3.7322,-3.7331,-3.7363,-3.7417,-3.7447,-3.7471,-3.7487,-3.7532,-3.7584,-3.7547,-3.7562,-3.754,-3.7582,-3.7689,-3.7536,-3.7536,-3.7565,-3.7801,-3.7832,-3.7853,-3.7665,-3.7668,-3.767,-3.78,0,-3.7418,-3.751,-3.7484,-3.7576,-3.7616,-3.7565,-3.7612,-3.7623,-3.7616,-3.7649,-3.764,-3.7678,-3.7626,-3.7635,-3.7674,-3.7667,-3.7736,-3.7657,-3.7707,-3.7709,-3.7706,-3.7875,-3.7907,-3.803,-3.7817,-3.7819,-3.7821,0,-3.7579,-3.7602,-3.7699,-3.7701,-3.7717,-3.776,-3.7785,-3.7817,-3.7828,-3.782,-3.7838,-3.7807,-3.786,-3.7796,-3.787,-3.7817,-3.7836,-3.7835,-3.784,-3.7844,-3.7772,-3.7884,-3.8068,-3.8087,-3.7847,-3.7845,-3.7843,0,-3.7705,-3.776,-3.7825,-3.7834,-3.7839,-3.787,-3.7873,-3.7881,-3.7901,-3.7923,-3.7936,-3.7965,-3.7981,-3.8004,-3.7982,-3.7937,-3.8059,-3.7993,-3.8054,-3.8055,-3.8083,-3.8082,-3.8274,-3.8094,-3.8094,-3.8093,-3.8093,0,-3.7851,-3.7913,-3.7882,-3.7922,-3.7989,-3.7958,-3.8025,-3.8023,-3.803,-3.8069,-3.8027,-3.8065,-3.8033,-3.8068,-3.8051,-3.8115,-3.8122,-3.8118,-3.8113,-3.8122,-3.8123,-3.8134,-3.8125,-3.8098,-3.8097,-3.8096,-3.8095,0,-3.8003,-3.7985,-3.8053,-3.8051,-3.8052,-3.8102,-3.8101,-3.8138,-3.8127,-3.8177,-3.8187,-3.8171,-3.821,-3.819,-3.8231,-3.822,-3.8302,-3.8285,-3.8299,-3.8295,-3.8358,-3.8352,-3.8564,-3.859,-3.8393,-3.8395,-3.8397,0,-3.8098,-3.8144,-3.8148,-3.817,-3.8177,-3.8214,-3.8234,-3.8205,-3.8228,-3.8244,-3.828,-3.8315,-3.8342,-3.8406,-3.8399,-3.8429,-3.8413,-3.8485,-3.8418,-3.8426,-3.8415,-3.8413,-3.8418,-3.8499,-3.8502,-3.8504,-3.8505,0,-3.8268,-3.8257,-3.8287,-3.8315,-3.834,-3.8361,-3.8377,-3.8399,-3.837,-3.8398,-3.8437,-3.8458,-3.8499,-3.8535,-3.8562,-3.8565,-3.8531,-3.8526,-3.8542,-3.8553,-3.8559,-3.8557,-3.8337,-3.8522,-3.852,-3.8519,-3.8518,-3.8517,-3.8395,-3.8434,-3.8442,-3.8478,-3.8487,-3.8504,-3.8539,-3.8533,-3.8565,-3.8596,-3.8577,-3.8623,-3.8634,-3.8666,-3.8674,-3.871,-3.8681,-3.8704,-3.871,-3.8717,-3.8726,-3.8553,-3.8715,-3.8714,-3.8714,-3.8713,-3.8713,0,-3.8564,-3.8567,-3.86,-3.8625,-3.8653,-3.8617,-3.8634,-3.866,-3.8701,-3.8713,-3.874,-3.8786,-3.882,-3.8815,-3.8846,-3.8876,-3.8861,-3.8886,-3.8883,-3.8885,-3.8749,-3.8732,-3.8897,-3.8897,-3.8897,-3.8897,-3.8897,-3.8897,-3.8655,-3.8719,-3.8709,-3.8777,-3.8779,-3.8824,-3.8837,-3.8852,-3.8862,-3.8914,-3.8942,-3.8938,-3.8944,-3.8975,-3.9006,-3.9003,-3.9017,-3.9047,-3.9039,-3.8913,-3.8894,-3.8877,-3.8861,-3.905,-3.9051,-3.9172,-3.9173,-3.9174]},{"header":{"parameterUnit":"m.s-1","parameterCategory":1,"la1":30.2991,"la2":30.254,"lo1":-89.0895,"lo2":-89.0444,"dy":0.0017,"dx":0.0017,"nx":28,"ny":28,"refTime":"2024-03-18T09:00:00:Z","depth":0,"parameterNumber":3,"parameterNumberName":"V-component_of_WINDS"},"data":[0,0,0,0,0,0,0,0,0,0,0,0,0,0,0,0,0,0,0,0,0,0,0,0,0,0,0,0,0,0,0,0,0,0,0,0,0,0,0,0,0,0,0,0,0,0,0,0,0,0,0,0,0,0,0,0,0,0,-3.6935,-3.6935,0,-3.6952,-3.6952,-3.6952,-3.6895,-3.6893,-3.6892,-3.689,-3.6905,-3.6907,-3.6909,0,0,0,0,0,0,0,0,0,0,0,0,0,-3.6853,-3.6854,-3.6935,-3.6935,-3.6936,-3.6952,-3.6952,-3.6952,-3.6895,-3.6893,-3.6891,-3.6889,-3.6905,-3.6907,-3.691,0,0,0,0,0,0,0,0,0,0,0,0,0,-3.6881,-3.6855,-3.6935,-3.6909,-3.6907,-3.6952,-3.6952,-3.6952,-3.6896,-3.6893,-3.6891,-3.6888,-3.6904,-3.6907,-3.691,-3.698,0,0,-3.6919,-3.692,0,0,0,0,0,0,0,0,-3.6879,-3.6884,-3.6913,-3.6911,-3.6909,-3.6919,-3.6928,-3.6961,-3.6896,-3.69,-3.689,-3.6887,-3.6912,-3.6914,-3.6923,-3.698,-3.6981,-3.6919,-3.6921,-3.6922,-3.6923,0,0,0,0,0,0,0,-3.6877,-3.6883,-3.6942,-3.6913,-3.6911,-3.6896,-3.6897,-3.6934,-3.692,-3.69,-3.6895,-3.6898,-3.691,-3.692,-3.6923,-3.6981,-3.6919,-3.6922,-3.6924,-3.6925,-3.7097,-3.7099,0,0,0,0,0,0,-3.6879,-3.6882,-3.6941,-3.6942,-3.6887,-3.69,-3.6901,-3.6918,-3.6919,-3.6917,-3.69,-3.6895,-3.6916,-3.6919,-3.6923,-3.7005,-3.6922,-3.6925,-3.6927,-3.7094,-3.7097,-3.71,0,0,0,0,0,0,-3.6878,-3.6885,-3.694,-3.6911,-3.6917,-3.6904,-3.6924,-3.692,-3.6929,-3.692,-3.6917,-3.6913,-3.6914,-3.6919,-3.6966,-3.7004,-3.6927,-3.6929,-3.7091,-3.7095,-3.7099,-3.7169,0,0,0,0,0,0,-3.6875,-3.6885,-3.6912,-3.6912,-3.6919,-3.6984,-3.6926,-3.6922,-3.6935,-3.6929,-3.6931,-3.6929,-3.6912,-3.6962,-3.6969,-3.7007,-3.6932,-3.7087,-3.7092,-3.7097,-3.7163,-3.7175,-3.7185,0,0,0,0,0,-3.6873,-3.6931,-3.6913,-3.6921,-3.6952,-3.6986,-3.699,-3.697,-3.6938,-3.6965,-3.6959,-3.6929,-3.6999,-3.6967,-3.6975,-3.7014,-3.7085,-3.7091,-3.7097,-3.7158,-3.7173,-3.7185,0,0,0,0,0,0,-3.6935,-3.693,-3.6911,-3.6971,-3.698,-3.6977,-3.701,-3.6986,-3.7004,-3.6997,-3.6971,-3.6972,-3.7024,-3.7024,-3.6988,-3.7082,-3.7036,-3.7044,-3.708,-3.7094,-3.7105,-3.7104,-3.6934,0,0,0,0,0,-3.6956,-3.6985,-3.6979,-3.7032,-3.7037,-3.7023,-3.7037,-3.7021,-3.7029,-3.7032,-3.7029,-3.7038,-3.7061,-3.7077,-3.7099,-3.7163,-3.7162,-3.7194,-3.7205,-3.7214,-3.7221,-3.7255,-3.7268,-3.7121,-3.712,-3.712,0,0,-3.6999,-3.7,-3.7019,-3.7044,-3.7049,-3.7079,-3.7026,-3.706,-3.7082,-3.7037,-3.7082,-3.708,-3.7087,-3.7143,-3.7168,-3.7145,-3.7262,-3.7222,-3.7229,-3.7231,-3.7262,-3.7276,-3.7289,-3.7125,-3.7124,-3.7123,0,0,-3.7093,-3.7096,-3.7141,-3.7147,-3.7155,-3.7145,-3.7156,-3.7157,-3.7154,-3.7199,-3.7165,-3.719,-3.7232,-3.7238,-3.7247,-3.7343,-3.7316,-3.7351,-3.7408,-3.7441,-3.7453,-3.7463,-3.7497,-3.751,-3.7358,-3.7358,-3.7358,0,-3.7145,-3.7189,-3.7167,-3.7203,-3.7215,-3.7176,-3.7221,-3.7227,-3.7242,-3.7251,-3.7224,-3.7276,-3.7278,-3.7335,-3.7358,-3.7366,-3.7378,-3.735,-3.7453,-3.7463,-3.7472,-3.7505,-3.7518,-3.7362,-3.7362,-3.7361,-3.7361,0,-3.7253,-3.7285,-3.732,-3.7335,-3.7351,-3.7391,-3.7374,-3.7393,-3.7375,-3.7368,-3.7413,-3.7414,-3.7435,-3.7447,-3.743,-3.7502,-3.7487,-3.7458,-3.7411,-3.7491,-3.7521,-3.7533,-3.7368,-3.7367,-3.7365,-3.7364,0,0,-3.7388,-3.739,-3.7403,-3.741,-3.7416,-3.7439,-3.7477,-3.7498,-3.7514,-3.7525,-3.7556,-3.7592,-3.7565,-3.7575,-3.7558,-3.7587,-3.7663,-3.7554,-3.7553,-3.7574,-3.7742,-3.7764,-3.7779,-3.7645,-3.7647,-3.7649,-3.7741,0,-3.748,-3.7546,-3.7527,-3.7593,-3.7622,-3.7584,-3.7617,-3.7624,-3.7618,-3.7641,-3.7634,-3.766,-3.7622,-3.7627,-3.7654,-3.7648,-3.7696,-3.7641,-3.7674,-3.7675,-3.7674,-3.7795,-3.7819,-3.7906,-3.7753,-3.7755,-3.7756,0,-3.7597,-3.7613,-3.7683,-3.7683,-3.7695,-3.7725,-3.7742,-3.7764,-3.7771,-3.7764,-3.7776,-3.7753,-3.779,-3.7743,-3.7793,-3.7756,-3.7768,-3.7767,-3.777,-3.7772,-3.7721,-3.7801,-3.7933,-3.7946,-3.7774,-3.7773,-3.7772,0,-3.7688,-3.7727,-3.7774,-3.778,-3.7782,-3.7805,-3.7806,-3.781,-3.7824,-3.7839,-3.7847,-3.7866,-3.7876,-3.7891,-3.7874,-3.7841,-3.7927,-3.7878,-3.7922,-3.7923,-3.7942,-3.7941,-3.8079,-3.795,-3.7949,-3.7949,-3.7949,0,-3.7794,-3.7838,-3.7815,-3.7843,-3.7891,-3.7868,-3.7916,-3.7913,-3.7917,-3.7944,-3.7913,-3.7939,-3.7914,-3.7937,-3.7923,-3.7967,-3.7972,-3.7968,-3.7963,-3.7971,-3.7971,-3.7979,-3.7972,-3.7952,-3.7952,-3.7951,-3.795,0,-3.7904,-3.789,-3.7939,-3.7937,-3.7937,-3.7972,-3.797,-3.7996,-3.7988,-3.8022,-3.8029,-3.8016,-3.8042,-3.8025,-3.8052,-3.8042,-3.81,-3.8087,-3.8098,-3.8095,-3.8139,-3.8135,-3.8286,-3.8305,-3.8164,-3.8165,-3.8166,0,-3.7972,-3.8005,-3.8007,-3.8023,-3.8027,-3.8053,-3.8067,-3.8045,-3.8061,-3.8071,-3.8096,-3.8119,-3.8136,-3.818,-3.8172,-3.8192,-3.8179,-3.8231,-3.8182,-3.8188,-3.8181,-3.8179,-3.8182,-3.8241,-3.8243,-3.8244,-3.8245,0,-3.8095,-3.8087,-3.8108,-3.8128,-3.8145,-3.8159,-3.817,-3.8185,-3.8163,-3.8182,-3.8208,-3.8222,-3.8249,-3.8272,-3.8289,-3.829,-3.8264,-3.826,-3.8272,-3.828,-3.8285,-3.8283,-3.8125,-3.8257,-3.8256,-3.8255,-3.8254,-3.8254,-3.8187,-3.8214,-3.822,-3.8245,-3.8251,-3.8262,-3.8287,-3.8281,-3.8303,-3.8323,-3.8309,-3.834,-3.8345,-3.8365,-3.8369,-3.8393,-3.8372,-3.8388,-3.8392,-3.8397,-3.8403,-3.8281,-3.8396,-3.8395,-3.8395,-3.8395,-3.8395,0,-3.8308,-3.831,-3.8333,-3.835,-3.8369,-3.8344,-3.8354,-3.8372,-3.84,-3.8408,-3.8426,-3.8456,-3.8478,-3.8472,-3.8492,-3.8513,-3.8501,-3.8519,-3.8517,-3.8518,-3.8421,-3.8409,-3.8528,-3.8527,-3.8527,-3.8527,-3.8527,-3.8527,-3.8374,-3.8419,-3.8412,-3.8459,-3.846,-3.8491,-3.85,-3.851,-3.8515,-3.8551,-3.8569,-3.8565,-3.8567,-3.8587,-3.8606,-3.8604,-3.8613,-3.8635,-3.8628,-3.8538,-3.8525,-3.8512,-3.8501,-3.8637,-3.8637,-3.8723,-3.8724,-3.8725]}]]